W5ITZ Weather Reports


time (UTC)temp
C
wind
direction
speed
KPH
gust
KPH
rain 1hr
cm
rain 24hr
cm
rain mn
cm
humidity
%
barometer
mb
20260510083248 21 133 1.6 1.6 0.00 0.00 0.00 96 1011.1
20260510082743 20 134 1.6 1.6 0.00 0.00 0.00 95 1011.1
20260510082240 21 135 3.2 3.2 0.00 0.00 0.00 95 1010.9
20260510081739 20 134 3.2 3.2 0.00 0.00 0.00 95 1011.0
20260510081236 21 133 3.2 1.6 0.00 0.00 0.00 95 1011.1
20260510080731 21 129 3.2 3.2 0.00 0.00 0.00 95 1011.0
20260510080227 21 120 4.8 4.8 0.00 0.00 0.00 95 1011.0
20260510075723 21 135 3.2 3.2 0.00 0.00 0.00 95 1010.9
20260510075221 21 135 3.2 1.6 0.00 0.00 0.00 95 1010.9
20260510074718 21 123 3.2 3.2 0.00 0.00 0.00 95 1011.0
20260510074215 21 123 3.2 3.2 0.00 0.00 0.00 95 1011.1
20260510073711 21 152 3.2 3.2 0.00 0.00 0.00 95 1011.2
20260510073207 21 163 4.8 3.2 0.00 0.00 0.00 94 1010.9
20260510072703 21 153 4.8 4.8 0.00 0.00 0.00 94 1011.1
20260510072200 21 129 3.2 3.2 0.00 0.00 0.00 94 1011.3
20260510071656 21 114 3.2 3.2 0.00 0.00 0.00 94 1011.1
20260510071153 21 182 3.2 3.2 0.00 0.00 0.00 94 1010.9
20260510070651 21 183 1.6 1.6 0.00 0.00 0.00 94 1011.1
20260510070148 21 195 3.2 3.2 0.00 0.00 0.00 94 1011.3
20260510065643 21 195 3.2 3.2 0.00 0.00 0.00 94 1011.0
20260510065139 21 197 3.2 3.2 0.00 0.00 0.00 94 1010.9
20260510064636 21 184 3.2 3.2 0.00 0.00 0.00 93 1011.3
20260510064133 21 169 4.8 4.8 0.00 0.00 0.00 93 1011.1
20260510063630 21 168 4.8 3.2 0.00 0.00 0.00 93 1011.1
20260510063127 21 141 3.2 1.6 0.00 0.00 0.00 93 1011.1
20260510062622 21 122 4.8 3.2 0.00 0.00 0.00 93 1011.6
20260510062118 22 139 4.8 4.8 0.00 0.00 0.00 93 1011.2
20260510061614 22 116 3.2 3.2 0.00 0.00 0.00 93 1011.7
20260510061112 22 105 3.2 3.2 0.00 0.00 0.00 93 1011.6
20260510060608 22 109 3.2 3.2 0.00 0.00 0.00 92 1011.8
20260510060105 22 123 4.8 4.8 0.00 0.00 0.00 92 1011.6
20260510055600 22 109 4.8 4.8 0.00 0.00 0.00 92 1011.9
20260510055059 22 105 4.8 8.0 0.00 0.00 0.00 92 1011.9
20260510054554 22 114 4.8 4.8 0.00 0.00 0.00 91 1011.9
20260510054050 22 112 4.8 4.8 0.00 0.00 0.00 91 1012.1
20260510053549 22 90 4.8 3.2 0.00 0.00 0.00 90 1011.9
20260510053047 22 97 6.4 8.0 0.00 0.00 0.00 90 1011.8
20260510052542 21 111 6.4 8.0 0.00 0.00 0.00 89 1011.7
20260510052039 21 84 8.0 8.0 0.00 0.00 0.00 88 1011.5
20260510051534 21 101 6.4 4.8 0.00 0.00 0.00 87 1011.9
20260510051031 21 93 4.8 4.8 0.00 0.00 0.00 86 1011.6
20260510050529 22 123 6.4 8.0 0.00 0.00 0.00 86 1011.5
20260510050026 22 102 3.2 3.2 0.00 0.03 0.03 86 1011.5
20260510045523 22 78 3.2 1.6 0.00 0.03 0.03 85 1011.3
20260510045018 22 121 3.2 3.2 0.00 0.03 0.03 86 1011.4
20260510044516 22 101 3.2 3.2 0.00 0.03 0.03 86 1011.1
20260510044013 22 167 4.8 3.2 0.00 0.03 0.03 85 1011.1
20260510043508 22 142 4.8 4.8 0.00 0.03 0.03 85 1011.3
20260510043003 22 111 6.4 8.0 0.00 0.03 0.03 84 1011.0
20260510042458 22 119 6.4 9.7 0.00 0.03 0.03 84 1011.2
20260510041953 22 98 4.8 8.0 0.00 0.03 0.03 84 1011.1
20260510041450 22 123 6.4 9.7 0.00 0.03 0.03 84 1011.5
20260510040948 22 136 6.4 4.8 0.00 0.03 0.03 83 1011.4
20260510040444 23 113 6.4 8.0 0.00 0.03 0.03 79 1011.3
20260510035940 23 94 3.2 3.2 0.00 0.03 0.03 78 1011.0
20260510035437 23 99 4.8 4.8 0.00 0.03 0.03 78 1010.7
20260510034936 23 136 6.4 8.0 0.00 0.03 0.03 79 1010.4
20260510034436 22 145 4.8 8.0 0.00 0.03 0.03 79 1010.4
20260510033931 23 194 8.0 8.0 0.00 0.03 0.03 78 1010.3
20260510033428 23 207 8.0 9.7 0.00 0.03 0.03 78 1009.8
20260510032925 23 214 6.4 4.8 0.00 0.03 0.03 77 1010.0
20260510032422 23 215 3.2 3.2 0.00 0.03 0.03 76 1010.0
20260510031917 23 217 6.4 8.0 0.00 0.03 0.03 77 1010.2
20260510031412 23 221 6.4 8.0 0.00 0.03 0.03 77 1009.9
20260510030907 23 214 4.8 3.2 0.00 0.03 0.03 76 1010.0
20260510030403 23 209 6.4 4.8 0.00 0.03 0.03 76 1010.0
20260510025901 23 184 4.8 4.8 0.00 0.03 0.03 76 1010.0
20260510025359 23 170 4.8 4.8 0.00 0.03 0.03 75 1009.9
20260510024856 23 178 4.8 4.8 0.00 0.03 0.03 75 1009.7
20260510024352 23 154 4.8 3.2 0.00 0.03 0.03 75 1009.8
20260510023848 24 150 4.8 4.8 0.00 0.03 0.03 74 1009.7
20260510023344 24 140 6.4 8.0 0.00 0.03 0.03 74 1009.7
20260510022842 24 136 8.0 9.7 0.00 0.03 0.03 74 1009.9
20260510022341 25 142 6.4 4.8 0.00 0.03 0.03 73 1009.6
20260510021840 25 156 6.4 8.0 0.00 0.03 0.03 72 1009.6
20260510021339 25 179 6.4 4.8 0.00 0.03 0.03 72 1009.4
20260510020834 25 187 4.8 4.8 0.00 0.03 0.03 71 1009.6
20260510020329 25 195 6.4 4.8 0.00 0.03 0.03 71 1009.5
20260510015825 25 147 4.8 4.8 0.00 0.03 0.03 72 1009.2
20260510015321 26 125 4.8 8.0 0.00 0.03 0.03 71 1009.5
20260510014816 26 85 3.2 8.0 0.00 0.03 0.03 71 1009.3
20260510014314 26 106 3.2 3.2 0.00 0.03 0.03 71 1009.2
20260510013810 26 154 6.4 8.0 0.00 0.03 0.03 71 1008.9
20260510013305 26 198 8.0 8.0 0.00 0.03 0.03 71 1008.4
20260510012801 26 179 4.8 4.8 0.00 0.03 0.03 71 1008.5
20260510012255 26 217 9.7 11.3 0.00 0.03 0.03 69 1008.2
20260510011755 26 192 9.7 11.3 0.00 0.03 0.03 68 1008.0
20260510011251 27 186 9.7 12.9 0.00 0.03 0.03 67 1008.1
20260510010748 27 191 11.3 12.9 0.00 0.03 0.03 65 1008.1
20260510010244 27 207 11.3 12.9 0.00 0.03 0.03 65 1008.2
20260510005742 27 194 9.7 11.3 0.00 0.03 0.03 64 1008.4
20260510005237 28 199 11.3 12.9 0.00 0.03 0.03 62 1008.4
20260510004736 28 180 11.3 12.9 0.00 0.03 0.03 62 1008.3
20260510004233 28 194 9.7 11.3 0.00 0.03 0.03 61 1008.4
20260510003731 29 180 8.0 11.3 0.00 0.03 0.03 61 1008.5
20260510003227 29 203 6.4 4.8 0.00 0.03 0.03 59 1008.6
20260510002725 30 209 6.4 8.0 0.00 0.03 0.03 57 1008.6
20260510002223 30 195 8.0 8.0 0.00 0.03 0.03 57 1008.4
20260510001720 30 191 8.0 9.7 0.00 0.03 0.03 57 1008.3
20260510001218 30 196 8.0 9.7 0.00 0.03 0.03 57 1008.3
20260510000714 30 174 11.3 11.3 0.00 0.03 0.03 56 1008.4
20260510000211 30 183 6.4 8.0 0.00 0.03 0.03 56 1008.3
20260509235708 30 164 9.7 11.3 0.00 0.03 0.03 54 1008.4
20260509235204 30 181 11.3 12.9 0.00 0.03 0.03 54 1008.4
20260509234701 30 184 11.3 11.3 0.00 0.03 0.03 55 1008.4
20260509234158 31 166 12.9 14.5 0.00 0.03 0.03 54 1008.3
20260509233656 31 174 9.7 11.3 0.00 0.03 0.03 54 1008.5
20260509233153 31 173 12.9 12.9 0.00 0.03 0.03 53 1008.4
20260509232649 31 144 11.3 12.9 0.00 0.03 0.03 53 1008.2
20260509232146 31 162 14.5 16.1 0.00 0.03 0.03 53 1008.3
20260509231643 31 151 12.9 14.5 0.00 0.03 0.03 53 1008.3
20260509231140 31 158 12.9 14.5 0.00 0.03 0.03 53 1008.1
20260509230637 31 150 16.1 17.7 0.00 0.03 0.03 52 1008.1
20260509230134 31 143 14.5 14.5 0.00 0.03 0.03 52 1007.8
20260509225630 32 167 14.5 14.5 0.00 0.03 0.03 50 1008.2
20260509225125 32 197 8.0 9.7 0.00 0.03 0.03 48 1008.1
20260509224620 32 178 9.7 11.3 0.00 0.03 0.03 49 1008.1
20260509224118 32 221 6.4 4.8 0.00 0.03 0.03 50 1007.9
20260509223615 32 153 6.4 8.0 0.00 0.03 0.03 50 1007.9
20260509223113 32 198 8.0 8.0 0.00 0.03 0.03 47 1008.1
20260509222608 32 171 6.4 8.0 0.00 0.03 0.03 50 1007.9
20260509222104 32 234 1.6 1.6 0.00 0.03 0.03 47 1008.0
20260509221600 32 175 8.0 9.7 0.00 0.03 0.03 49 1008.1
20260509221056 32 230 1.6 1.6 0.00 0.03 0.03 48 1008.0
20260509220552 32 187 4.8 4.8 0.00 0.03 0.03 49 1008.3
20260509220049 32 189 6.4 8.0 0.00 0.03 0.03 47 1008.1
20260509215544 32 229 3.2 3.2 0.00 0.03 0.03 50 1008.0
20260509215042 32 219 8.0 9.7 0.00 0.03 0.03 49 1008.1
20260509214539 32 187 8.0 9.7 0.00 0.03 0.03 50 1008.2
20260509214036 33 333 1.6 1.6 0.00 0.03 0.03 50 1008.2
20260509213532 33 291 1.6 1.6 0.00 0.03 0.03 48 1008.2
20260509213029 33 315 3.2 3.2 0.00 0.03 0.03 48 1008.2
20260509212526 33 323 1.6 1.6 0.00 0.03 0.03 48 1008.2
20260509212023 33 342 0.0 0.0 0.00 0.03 0.03 48 1008.1
20260509211518 33 338 1.6 1.6 0.00 0.03 0.03 48 1008.0
20260509211016 33 103 4.8 3.2 0.00 0.03 0.03 48 1008.0
20260509210512 33 210 3.2 3.2 0.00 0.03 0.03 50 1008.2
20260509210008 33 258 4.8 3.2 0.00 0.03 0.03 48 1008.2
20260509205503 32 321 4.8 3.2 0.00 0.03 0.03 49 1008.3
20260509204958 33 69 3.2 3.2 0.00 0.03 0.03 50 1008.3
20260509204455 32 319 1.6 3.2 0.00 0.03 0.03 52 1008.2
20260509203951 32 276 4.8 4.8 0.00 0.03 0.03 50 1008.3
20260509203447 32 207 4.8 4.8 0.00 0.03 0.03 51 1008.4
20260509202945 32 326 3.2 3.2 0.00 0.03 0.03 52 1008.6
20260509202441 32 282 6.4 8.0 0.00 0.03 0.03 51 1008.7
20260509201936 32 316 4.8 4.8 0.00 0.03 0.03 53 1008.7
20260509201431 32 318 3.2 3.2 0.00 0.03 0.03 53 1008.5
20260509200929 31 291 0.0 0.0 0.00 0.03 0.03 56 1008.6
20260509200428 32 92 4.8 8.0 0.00 0.03 0.03 54 1008.7
20260509195926 32 41 3.2 3.2 0.00 0.03 0.03 54 1008.8
20260509195421 31 327 3.2 1.6 0.00 0.03 0.03 55 1008.9
20260509194920 31 299 3.2 3.2 0.00 0.03 0.03 58 1008.9
20260509194417 31 84 6.4 8.0 0.00 0.03 0.03 55 1008.9
20260509193914 31 77 4.8 4.8 0.00 0.03 0.03 56 1009.0
20260509193413 30 100 11.3 11.3 0.00 0.03 0.03 57 1008.9
20260509192909 31 119 8.0 9.7 0.00 0.03 0.03 58 1009.2
20260509192406 31 311 1.6 3.2 0.00 0.03 0.03 56 1009.2
20260509191901 31 267 1.6 3.2 0.00 0.03 0.03 57 1009.2
20260509191357 31 282 1.6 1.6 0.00 0.03 0.03 56 1009.1
20260509190853 30 238 3.2 3.2 0.00 0.03 0.03 58 1009.4
20260509190350 31 248 6.4 8.0 0.00 0.03 0.03 57 1009.4
20260509185848 30 24 3.2 3.2 0.00 0.03 0.03 58 1009.6
20260509185344 31 278 1.6 1.6 0.00 0.03 0.03 59 1009.5
20260509184842 31 296 3.2 4.8 0.00 0.03 0.03 58 1009.5
20260509184339 31 301 4.8 4.8 0.00 0.03 0.03 59 1009.5
20260509183835 31 308 3.2 3.2 0.00 0.03 0.03 59 1009.4
20260509183330 30 60 1.6 1.6 0.00 0.03 0.03 57 1009.5
20260509182827 30 70 3.2 3.2 0.00 0.03 0.03 56 1009.7
20260509182324 30 4 1.6 1.6 0.00 0.03 0.03 61 1009.7
20260509181821 30 336 1.6 1.6 0.00 0.03 0.03 59 1009.7
20260509181318 30 316 1.6 1.6 0.00 0.03 0.03 62 1009.8
20260509180815 30 293 6.4 4.8 0.00 0.03 0.03 61 1009.8
20260509180312 30 295 4.8 4.8 0.00 0.03 0.03 60 1010.1
20260509175808 30 278 6.4 8.0 0.00 0.03 0.03 59 1010.1
20260509175306 30 325 3.2 3.2 0.00 0.03 0.03 61 1010.2
20260509174801 30 286 3.2 1.6 0.00 0.03 0.03 60 1010.2
20260509174256 30 315 3.2 3.2 0.00 0.03 0.03 60 1010.3
20260509173752 30 314 4.8 4.8 0.00 0.03 0.03 62 1010.2
20260509173248 30 319 4.8 8.0 0.00 0.03 0.03 63 1010.7
20260509172744 30 299 1.6 1.6 0.00 0.03 0.03 66 1010.4
20260509172241 29 330 3.2 3.2 0.00 0.03 0.03 65 1010.3
20260509171736 28 317 3.2 3.2 0.00 0.03 0.03 67 1010.5
20260509171233 29 303 8.0 9.7 0.00 0.03 0.03 66 1010.4
20260509170730 29 308 4.8 3.2 0.00 0.03 0.03 67 1010.6
20260509170226 29 285 1.6 1.6 0.00 0.03 0.03 69 1010.5
20260509165724 28 337 1.6 3.2 0.00 0.03 0.03 71 1010.3
20260509165220 28 289 0.0 0.0 0.00 0.03 0.03 75 1010.3
20260509164716 28 308 3.2 4.8 0.00 0.03 0.03 73 1010.1
20260509164212 28 343 6.4 8.0 0.00 0.03 0.03 74 1010.3
20260509163709 27 353 1.6 1.6 0.00 0.03 0.03 78 1010.3
20260509163206 27 85 3.2 8.0 0.00 0.03 0.03 79 1010.1
20260509162703 27 36 3.2 4.8 0.00 0.03 0.03 79 1010.6
20260509162159 26 324 1.6 1.6 0.00 0.03 0.03 80 1010.3
20260509161654 26 330 3.2 4.8 0.00 0.03 0.03 79 1010.5
20260509161150 26 355 1.6 1.6 0.00 0.03 0.03 81 1010.3
20260509160646 26 335 1.6 1.6 0.00 0.03 0.03 82 1010.8
20260509160141 26 316 3.2 4.8 0.00 0.03 0.03 83 1010.4
20260509155638 26 296 3.2 3.2 0.00 0.03 0.03 84 1010.6
20260509155134 26 326 1.6 1.6 0.00 0.03 0.03 85 1010.6
20260509154630 25 358 1.6 1.6 0.00 0.03 0.03 87 1010.6
20260509154127 25 278 1.6 1.6 0.00 0.03 0.03 88 1010.5
20260509153625 25 193 1.6 1.6 0.00 0.03 0.03 88 1010.5
20260509153121 25 192 4.8 3.2 0.00 0.03 0.03 90 1010.8
20260509152617 25 111 1.6 1.6 0.00 0.03 0.03 90 1010.6
20260509152115 25 106 6.4 8.0 0.00 0.03 0.03 91 1010.4
20260509151611 25 151 6.4 8.0 0.00 0.03 0.03 90 1010.3
20260509151109 25 182 11.3 12.9 0.00 0.03 0.03 90 1009.8
20260509150606 25 181 6.4 8.0 0.00 0.03 0.03 90 1010.0
20260509150104 25 198 4.8 4.8 0.00 0.03 0.03 90 1009.9
20260509145559 25 207 1.6 1.6 0.00 0.03 0.03 90 1010.3
20260509145055 25 200 3.2 3.2 0.00 0.03 0.03 90 1010.1
20260509144552 25 204 4.8 4.8 0.00 0.03 0.03 90 1010.1
20260509144049 24 229 1.6 1.6 0.00 0.03 0.03 90 1010.6
20260509143546 25 228 4.8 3.2 0.00 0.03 0.03 90 1010.5
20260509143044 24 233 4.8 3.2 0.00 0.03 0.03 90 1010.1
20260509142539 24 288 1.6 1.6 0.00 0.03 0.03 91 1010.3
20260509142035 24 306 1.6 1.6 0.00 0.03 0.03 91 1010.3
20260509141532 24 265 4.8 4.8 0.00 0.03 0.03 91 1010.1
20260509141029 24 251 8.0 9.7 0.00 0.03 0.03 91 1009.8
20260509140525 24 267 4.8 3.2 0.00 0.03 0.03 91 1009.6
20260509140023 24 281 4.8 4.8 0.00 0.03 0.03 91 1009.5
20260509135520 24 281 4.8 4.8 0.00 0.03 0.03 91 1009.5
20260509135018 23 44 1.6 1.6 0.00 0.03 0.03 92 1009.4
20260509134515 23 45 1.6 1.6 0.00 0.03 0.03 92 1009.7
20260509134012 23 15 1.6 1.6 0.00 0.03 0.03 92 1009.7
20260509133509 23 320 1.6 1.6 0.00 0.03 0.03 92 1009.7
20260509133007 23 281 0.0 0.0 0.00 0.03 0.03 92 1010.1
20260509132505 23 6 3.2 4.8 0.00 0.03 0.03 93 1010.1
20260509132002 23 327 3.2 3.2 0.00 0.03 0.03 92 1010.3
20260509131459 23 28 3.2 3.2 0.00 0.03 0.03 92 1009.7
20260509130955 23 314 4.8 8.0 0.00 0.03 0.03 93 1009.5
20260509130450 23 333 1.6 3.2 0.00 0.03 0.03 93 1009.6
20260509125948 23 319 3.2 3.2 0.00 0.03 0.03 94 1010.0
20260509125444 23 342 8.0 12.9 0.00 0.03 0.03 94 1009.7
20260509124940 23 326 9.7 14.5 0.00 0.03 0.03 95 1010.0
20260509124438 23 16 6.4 9.7 0.00 0.03 0.03 95 1008.9
20260509123935 23 171 17.7 20.9 0.00 0.03 0.03 95 1008.7
20260509123432 23 135 29.0 33.8 0.00 0.03 0.03 96 1008.2
20260509122928 23 154 35.4 38.6 0.00 0.03 0.03 97 1008.1
20260509122425 23 134 27.4 29.0 0.00 0.03 0.03 98 1008.0
20260509121922 23 133 17.7 17.7 0.00 0.03 0.03 98 1008.9
20260509121419 23 129 12.9 12.9 0.00 0.03 0.03 98 1009.8
20260509120917 23 134 16.1 17.7 0.00 0.03 0.03 98 1009.9
20260509120414 23 134 11.3 14.5 0.00 0.03 0.03 98 1010.2
20260509115912 23 171 9.7 9.7 0.00 0.03 0.03 98 1010.3
20260509115409 23 207 9.7 12.9 0.00 0.03 0.03 98 1010.5
20260509114907 23 129 14.5 14.5 0.13 0.03 0.03 98 1010.6
20260509114405 23 157 8.0 9.7 0.13 0.03 0.03 98 1010.9
20260509113905 23 203 8.0 8.0 0.00 0.00 0.00 98 1010.7
20260509113401 23 183 12.9 14.5 0.00 0.00 0.00 98 1010.3
20260509112857 23 187 12.9 12.9 0.00 0.00 0.00 98 1010.6
20260509112355 23 247 0.0 1.6 0.00 0.00 0.00 98 1010.7
20260509111852 23 114 1.6 1.6 0.00 0.00 0.00 98 1010.5
20260509111348 23 86 1.6 1.6 0.00 0.00 0.00 98 1010.3
20260509110847 23 181 8.0 9.7 0.00 0.00 0.00 98 1009.8
20260509110342 23 181 8.0 8.0 0.00 0.00 0.00 98 1009.9
20260509105841 23 179 6.4 8.0 0.00 0.00 0.00 98 1010.0
20260509105339 23 171 6.4 4.8 0.00 0.00 0.00 98 1009.9
20260509104835 23 263 4.8 3.2 0.00 0.00 0.00 98 1010.1
20260509104332 23 265 0.0 0.0 0.00 0.00 0.00 97 1010.1
20260509103830 23 265 0.0 0.0 0.00 0.00 0.00 97 1010.0
20260509103327 23 265 0.0 0.0 0.00 0.00 0.00 98 1009.9
20260509102826 23 265 1.6 1.6 0.00 0.00 0.00 98 1009.9
20260509102322 23 264 1.6 1.6 0.00 0.00 0.00 98 1009.9
20260509101818 23 130 0.0 0.0 0.00 0.00 0.00 98 1009.7
20260509101314 23 87 1.6 1.6 0.00 0.00 0.00 98 1009.4
20260509100813 23 175 0.0 0.0 0.00 0.00 0.00 97 1009.3
20260509100309 23 178 1.6 1.6 0.00 0.00 0.00 97 1009.4
20260509095806 23 169 4.8 3.2 0.00 0.00 0.00 97 1009.5
20260509095306 23 344 0.0 0.0 0.00 0.00 0.00 97 1009.7
20260509094800 23 344 0.0 0.0 0.00 0.00 0.00 97 1009.8
20260509094257 23 344 0.0 0.0 0.00 0.00 0.00 97 1009.8
20260509093755 23 344 0.0 0.0 0.00 0.00 0.00 97 1009.7
20260509093252 23 343 0.0 0.0 0.00 0.00 0.00 97 1009.5
20260509092750 23 149 0.0 0.0 0.00 0.00 0.00 97 1009.3
20260509092247 23 162 3.2 3.2 0.00 0.00 0.00 97 1009.0
20260509091745 23 160 6.4 8.0 0.00 0.00 0.00 97 1009.2
20260509091241 23 171 6.4 8.0 0.00 0.00 0.00 97 1009.0
20260509090739 23 176 4.8 4.8 0.00 0.00 0.00 97 1008.8
20260509090236 23 146 4.8 4.8 0.00 0.00 0.00 97 1008.6
20260509085734 23 128 6.4 8.0 0.00 0.00 0.00 97 1008.8
20260509085231 23 147 6.4 8.0 0.00 0.00 0.00 97 1008.5
20260509084727 23 158 6.4 8.0 0.00 0.00 0.00 97 1008.4
20260509084224 23 152 8.0 9.7 0.00 0.00 0.00 97 1008.7
20260509083722 23 147 8.0 11.3 0.00 0.00 0.00 97 1008.8